TIANWANG 1B (TW-1B)
1 40927U 15051C   19351.38277462  .00010448  00000-0  14149-3 0  9991
2 40927  97.1150  36.5058 0009054  72.5706  53.5074 15.57832119238266
TIANWANG 1A (TW-1A)
1 40928U 15051D   19351.36100278  .00001990  00000-0  49046-4 0  9997
2 40928  97.1278  18.5630 0012170 127.3755   1.7810 15.41671109237153
LAPAN A2
1 40931U 15052B   19350.97195320  .00000793  00000-0  21444-4 0  9992
2 40931   5.9975 203.9520 0012456 198.9982 160.9454 14.76623401228093
LQSAT
1 40958U 15057A   19350.92533683 -.00000007 +00000-0 +65437-5 0  9999
2 40958 097.8789 055.0258 0018623 023.9354 336.2716 14.73100307225493
CHUBUSAT 2
1 41338U 16012B   19350.93714666  .00000266  00000-0  13954-4 0  9999
2 41338  31.0038  72.8772 0013674  98.2284 261.9902 15.00220299210151
CHUBUSAT 3
1 41339U 16012C   19351.41793776  .00000242  00000-0  12056-4 0  9999
2 41339  31.0124  67.6824 0013471 108.9988 251.2118 15.00390603210229
OUFTI-1
1 41458U 16025C   19350.84129966  .00001166  00000-0  62155-4 0  9996
2 41458  98.1001  86.9183 0166450 107.7451 254.2019 15.06311235199835
E-STAR-2
1 41459U 16025D   19351.36773463  .00000794  00000-0  44095-4 0  9991
2 41459  98.0989  87.0228 0167537 107.5442 254.4174 15.05912642199884
AAUSAT 4
1 41460U 16025E   19351.23996547  .00001309  00000-0  68083-4 0  9995
2 41460  98.0965  88.6201 0157286  98.8364 263.0739 15.07996276200022
NUSAT 1
1 41557U 16033B   19351.51644159  .00000791  00000-0  31994-4 0  9996
2 41557  97.4123  77.9405 0014147  22.0615 338.1230 15.27601210197849
BEESAT 4
1 41619U 16040W   19351.14422954  .00001086  00000-0  48307-4 0  9993
2 41619  97.3460  49.7982 0012884 104.0318 256.2352 15.23542501181486
PRATHAM
1 41783U 16059A   19350.77269914  .00000035  00000-0  15913-4 0  9998
2 41783  98.0447  46.1285 0033821 172.3111 187.8616 14.63026561172029
ALSAT 1N
1 41789U 16059G   19351.42656674  .00000087  00000-0  25399-4 0  9996
2 41789  98.0476  49.1653 0028922 158.5318 201.7108 14.64283882172248
NAYIF 1
1 42017U 17008BX  19350.77666686  .00001174  00000-0  48492-4 0  9994
2 42017  97.3838  55.8420 0004748 243.8983 116.1767 15.25979971157533
MAX VALIER SAT
1 42778U 17036P   19351.16551160  .00000725  00000-0  34409-4 0  9997
2 42778  97.3320  44.6209 0010939 311.8597  48.1705 15.22303160137846
